�������l�o���
Date,Time,MP-1(��Sv/h),MP-2(��Sv/h),MP-3(��Sv/h),MP-4(��Sv/h),MP-5(��Sv/h),MP-6(��Sv/h),MP-7(��Sv/h),MP-8(��Sv/h),����,����(m/s),���J
2022/07/31,00:00,0.600,0.846,0.536,1.005,0.720,0.342,0.588,0.555,��,0.9,��
2022/07/31,00:10,0.601,0.846,0.536,1.006,0.721,0.343,0.589,0.556,���쐼,0.6,��
2022/07/31,00:20,0.602,0.843,0.539,1.005,0.721,0.343,0.588,0.555,�쐼,0.8,��
2022/07/31,00:30,0.601,0.845,0.537,1.008,0.721,0.341,0.590,0.556,�쐼,0.6,��
2022/07/31,00:40,0.601,0.846,0.537,1.007,0.720,0.342,0.590,0.555,��쐼,1.4,��
2022/07/31,00:50,0.599,0.844,0.537,1.006,0.721,0.342,0.589,0.558,��,1.4,��
2022/07/31,01:00,0.601,0.845,0.538,1.006,0.721,0.344,0.587,0.557,��,1.5,��
2022/07/31,01:10,0.600,0.845,0.538,1.008,0.719,0.343,0.590,0.555,��쐼,0.9,��
2022/07/31,01:20,0.602,0.844,0.539,1.007,0.721,0.342,0.591,0.557,��쓌,0.6,��
2022/07/31,01:30,0.600,0.846,0.537,1.005,0.721,0.343,0.589,0.555,��쐼,0.9,��
2022/07/31,01:40,0.601,0.845,0.537,1.007,0.722,0.343,0.590,0.555,��쐼,0.9,��
2022/07/31,01:50,0.601,0.846,0.537,1.006,0.721,0.343,0.588,0.558,��쐼,0.6,��
2022/07/31,02:00,0.602,0.845,0.538,1.009,0.724,0.343,0.590,0.555,-,CALM,��
2022/07/31,02:10,0.601,0.846,0.537,1.005,0.721,0.343,0.589,0.556,��,0.6,��
2022/07/31,02:20,0.601,0.845,0.540,1.006,0.722,0.342,0.590,0.557,���k��,0.6,��
2022/07/31,02:30,0.602,0.845,0.538,1.007,0.723,0.342,0.590,0.557,�k�k��,0.9,��
2022/07/31,02:40,0.600,0.844,0.538,1.008,0.722,0.342,0.590,0.557,�k�k��,1.1,��
2022/07/31,02:50,0.600,0.846,0.537,1.007,0.723,0.343,0.590,0.556,�k,0.8,��
2022/07/31,03:00,0.603,0.844,0.537,1.006,0.722,0.343,0.590,0.557,�k�k��,1.1,��
2022/07/31,03:10,0.601,0.847,0.538,1.008,0.721,0.342,0.589,0.556,�k��,1.7,��
2022/07/31,03:20,0.602,0.846,0.539,1.008,0.721,0.342,0.590,0.557,���k��,2.6,��
2022/07/31,03:30,0.601,0.846,0.539,1.008,0.723,0.343,0.590,0.557,�k��,2.3,��
2022/07/31,03:40,0.603,0.847,0.538,1.008,0.723,0.344,0.590,0.557,�k��,1.7,��
2022/07/31,03:50,0.604,0.846,0.538,1.008,0.721,0.344,0.592,0.557,�k��,1.7,��
2022/07/31,04:00,0.602,0.844,0.538,1.009,0.725,0.343,0.592,0.556,�k��,1.2,��
2022/07/31,04:10,0.602,0.845,0.540,1.008,0.724,0.343,0.589,0.558,�k��,0.9,��
2022/07/31,04:20,0.601,0.845,0.538,1.008,0.722,0.343,0.592,0.557,�k��,1.2,��
2022/07/31,04:30,0.601,0.847,0.536,1.007,0.722,0.344,0.591,0.556,���쐼,1.2,��
2022/07/31,04:40,0.602,0.847,0.536,1.009,0.720,0.343,0.592,0.557,�쐼,1.1,��
2022/07/31,04:50,0.602,0.847,0.538,1.008,0.720,0.343,0.592,0.556,��쐼,0.9,��
2022/07/31,05:00,0.601,0.845,0.538,1.008,0.721,0.344,0.590,0.556,��쐼,0.9,��
2022/07/31,05:10,0.602,0.847,0.538,1.007,0.722,0.343,0.592,0.557,��,0.6,��
2022/07/31,05:20,0.602,0.845,0.539,1.010,0.722,0.343,0.590,0.558,-,CALM,��
2022/07/31,05:30,0.601,0.846,0.537,1.008,0.721,0.345,0.591,0.554,���k��,0.9,��
2022/07/31,05:40,0.603,0.845,0.538,1.006,0.721,0.342,0.590,0.557,�k�k��,1.2,��
2022/07/31,05:50,0.600,0.845,0.539,1.007,0.722,0.344,0.592,0.557,���k��,1.2,��
2022/07/31,06:00,0.602,0.844,0.538,1.007,0.722,0.343,0.592,0.558,�k��,1.7,��
2022/07/31,06:10,0.602,0.844,0.536,1.009,0.721,0.343,0.592,0.556,�k�k��,1.7,��
2022/07/31,06:20,0.601,0.844,0.539,1.008,0.721,0.343,0.592,0.557,�k�k��,1.4,��
2022/07/31,06:30,0.600,0.844,0.538,1.007,0.718,0.344,0.592,0.556,�k,2.0,��
2022/07/31,06:40,0.603,0.843,0.536,1.009,0.721,0.343,0.593,0.556,�k�k��,2.3,��
2022/07/31,06:50,0.604,0.846,0.537,1.008,0.720,0.343,0.591,0.556,�k��,2.3,��
2022/07/31,07:00,0.602,0.843,0.537,1.005,0.721,0.344,0.594,0.557,�k��,1.1,��
2022/07/31,07:10,0.603,0.845,0.538,1.007,0.722,0.344,0.592,0.558,�k�k��,0.9,��
2022/07/31,07:20,0.603,0.845,0.537,1.007,0.721,0.344,0.593,0.556,���k��,0.9,��
2022/07/31,07:30,0.603,0.845,0.537,1.006,0.721,0.343,0.593,0.555,-,CALM,��
2022/07/31,07:40,0.602,0.845,0.537,1.007,0.721,0.344,0.594,0.556,�k��,0.6,��
2022/07/31,07:50,0.602,0.845,0.537,1.006,0.720,0.344,0.594,0.557,�k�k��,1.4,��
2022/07/31,08:00,0.602,0.847,0.538,1.006,0.724,0.343,0.593,0.558,�k�k��,1.5,��
2022/07/31,08:10,0.602,0.845,0.537,1.006,0.722,0.342,0.592,0.556,�k,1.7,��
2022/07/31,08:20,0.603,0.845,0.537,1.005,0.722,0.343,0.593,0.556,�k�k��,1.5,��
2022/07/31,08:30,0.601,0.845,0.538,1.007,0.723,0.343,0.593,0.555,�k��,1.9,��
2022/07/31,08:40,0.603,0.845,0.535,1.006,0.721,0.343,0.592,0.556,�k�k��,1.5,��
2022/07/31,08:50,0.603,0.846,0.537,1.005,0.721,0.341,0.593,0.556,�k��,0.9,��
2022/07/31,09:00,0.603,0.848,0.538,1.007,0.721,0.343,0.594,0.554,��,1.7,��
2022/07/31,09:10,0.603,0.845,0.538,1.006,0.722,0.342,0.595,0.555,��,2.2,��
2022/07/31,09:20,0.604,0.846,0.536,1.008,0.720,0.342,0.595,0.556,��,2.3,��
2022/07/31,09:30,0.603,0.846,0.539,1.008,0.721,0.342,0.594,0.557,��,2.6,��
2022/07/31,09:40,0.603,0.848,0.537,1.006,0.721,0.342,0.594,0.556,��,3.7,��
2022/07/31,09:50,0.603,0.847,0.537,1.008,0.724,0.344,0.592,0.556,���k��,2.0,��
2022/07/31,10:00,0.602,0.847,0.537,1.006,0.722,0.342,0.592,0.556,���k��,2.5,��
2022/07/31,10:10,0.602,0.845,0.536,1.006,0.721,0.342,0.594,0.555,��,2.5,��
2022/07/31,10:20,0.602,0.846,0.536,1.006,0.723,0.342,0.591,0.555,��,1.9,��
2022/07/31,10:30,0.603,0.847,0.538,1.006,0.724,0.343,0.592,0.555,�쓌,2.5,��
2022/07/31,10:40,0.602,0.846,0.537,1.008,0.723,0.343,0.591,0.554,�쓌,2.0,��
2022/07/31,10:50,0.606,0.848,0.538,1.008,0.724,0.342,0.593,0.555,���쓌,1.7,��
2022/07/31,11:00,0.606,0.848,0.538,1.010,0.724,0.344,0.593,0.556,�쓌,1.5,��
2022/07/31,11:10,0.602,0.849,0.539,1.009,0.725,0.341,0.593,0.555,�쓌,2.0,��
2022/07/31,11:20,0.604,0.850,0.539,1.007,0.725,0.343,0.593,0.555,�쓌,2.6,��
2022/07/31,11:30,0.604,0.849,0.538,1.005,0.725,0.343,0.593,0.556,�쓌,2.6,��
2022/07/31,11:40,0.605,0.850,0.537,1.005,0.726,0.343,0.593,0.556,�쓌,3.3,��
2022/07/31,11:50,0.605,0.851,0.537,1.007,0.726,0.344,0.592,0.557,�쓌,2.6,��
2022/07/31,12:00,0.605,0.849,0.538,1.007,0.725,0.342,0.592,0.555,��쓌,2.5,��
2022/07/31,12:10,0.606,0.851,0.538,1.008,0.727,0.343,0.592,0.558,��쓌,3.1,��
2022/07/31,12:20,0.604,0.851,0.539,1.008,0.727,0.343,0.593,0.557,��쓌,2.9,��
2022/07/31,12:30,0.605,0.851,0.539,1.007,0.725,0.343,0.590,0.558,��쓌,2.9,��
2022/07/31,12:40,0.605,0.850,0.541,1.008,0.725,0.344,0.593,0.558,��쓌,2.6,��
2022/07/31,12:50,0.606,0.849,0.538,1.008,0.726,0.345,0.591,0.556,��쓌,2.5,��
2022/07/31,13:00,0.607,0.852,0.541,1.007,0.726,0.342,0.591,0.558,�쓌,2.8,��
2022/07/31,13:10,0.606,0.853,0.539,1.010,0.728,0.344,0.592,0.557,��쓌,3.6,��
2022/07/31,13:20,0.608,0.853,0.539,1.010,0.726,0.343,0.592,0.558,��쓌,3.7,��
2022/07/31,13:30,0.605,0.852,0.541,1.008,0.730,0.344,0.591,0.559,��쓌,3.8,��
2022/07/31,13:40,0.609,0.855,0.542,1.009,0.727,0.344,0.591,0.559,��쓌,4.5,��
2022/07/31,13:50,0.607,0.854,0.541,1.010,0.727,0.344,0.591,0.557,��쓌,3.9,��
2022/07/31,14:00,0.606,0.855,0.541,1.008,0.729,0.345,0.592,0.557,��쓌,4.0,��
2022/07/31,14:10,0.607,0.854,0.543,1.010,0.730,0.346,0.593,0.558,��쓌,4.4,��
2022/07/31,14:20,0.607,0.855,0.542,1.010,0.731,0.345,0.594,0.557,�쓌,4.3,��
2022/07/31,14:30,0.610,0.855,0.542,1.010,0.731,0.344,0.592,0.558,��쓌,4.1,��
2022/07/31,14:40,0.609,0.856,0.543,1.010,0.731,0.346,0.593,0.559,��쓌,3.8,��
2022/07/31,14:50,0.610,0.854,0.543,1.009,0.730,0.343,0.593,0.558,��쓌,2.9,��
2022/07/31,15:00,0.610,0.853,0.541,1.010,0.730,0.346,0.593,0.558,��쓌,3.2,��
2022/07/31,15:10,0.609,0.855,0.542,1.010,0.732,0.345,0.592,0.558,��쓌,4.1,��
2022/07/31,15:20,0.611,0.856,0.541,1.010,0.731,0.346,0.592,0.558,��쓌,4.0,��
2022/07/31,15:30,0.610,0.854,0.543,1.011,0.732,0.344,0.594,0.557,��쓌,5.0,��
2022/07/31,15:40,0.608,0.857,0.543,1.013,0.731,0.346,0.592,0.558,��쓌,4.3,��
2022/07/31,15:50,0.609,0.855,0.544,1.014,0.730,0.346,0.593,0.559,��쓌,4.7,��
2022/07/31,16:00,0.610,0.855,0.543,1.012,0.732,0.344,0.593,0.556,��쓌,4.3,��
2022/07/31,16:10,0.607,0.855,0.544,1.014,0.731,0.345,0.593,0.556,��쓌,5.4,��
2022/07/31,16:20,0.609,0.854,0.541,1.016,0.731,0.345,0.593,0.556,��쓌,5.8,��
2022/07/31,16:30,0.611,0.857,0.542,1.015,0.731,0.343,0.593,0.556,��,5.3,��
2022/07/31,16:40,0.608,0.855,0.542,1.014,0.733,0.343,0.592,0.555,��,4.7,��
2022/07/31,16:50,0.608,0.854,0.542,1.014,0.732,0.343,0.592,0.556,��쓌,6.1,��
2022/07/31,17:00,0.609,0.854,0.541,1.017,0.729,0.344,0.591,0.556,��,4.4,��
2022/07/31,17:10,0.612,0.853,0.541,1.013,0.731,0.345,0.590,0.557,��,4.9,��
2022/07/31,17:20,0.610,0.855,0.540,1.015,0.730,0.343,0.591,0.556,��,5.1,��
2022/07/31,17:30,0.610,0.855,0.541,1.013,0.730,0.345,0.591,0.555,��,5.6,��
2022/07/31,17:40,0.609,0.852,0.541,1.013,0.732,0.344,0.591,0.558,��,5.6,��
2022/07/31,17:50,0.609,0.856,0.541,1.015,0.730,0.344,0.592,0.559,��,5.0,��
2022/07/31,18:00,0.609,0.855,0.540,1.013,0.731,0.342,0.592,0.557,��,5.3,��
2022/07/31,18:10,0.608,0.855,0.539,1.014,0.733,0.343,0.591,0.557,��,4.7,��
2022/07/31,18:20,0.609,0.856,0.541,1.014,0.729,0.343,0.592,0.557,��,5.0,��
2022/07/31,18:30,0.608,0.856,0.541,1.015,0.730,0.343,0.591,0.558,��,5.6,��
2022/07/31,18:40,0.609,0.854,0.540,1.014,0.731,0.343,0.592,0.556,��쐼,4.3,��
2022/07/31,18:50,0.609,0.854,0.540,1.013,0.730,0.344,0.592,0.556,��쐼,6.1,��
2022/07/31,19:00,0.609,0.854,0.543,1.015,0.732,0.343,0.590,0.558,�쐼,5.7,��
2022/07/31,19:10,0.609,0.855,0.542,1.017,0.733,0.344,0.591,0.556,�쐼,4.5,��
2022/07/31,19:20,0.609,0.853,0.541,1.016,0.730,0.344,0.592,0.557,�쐼,4.2,��
2022/07/31,19:30,0.610,0.854,0.542,1.016,0.731,0.344,0.590,0.557,�쐼,5.0,��
2022/07/31,19:40,0.610,0.856,0.542,1.015,0.733,0.344,0.591,0.555,���쐼,5.2,��
2022/07/31,19:50,0.608,0.855,0.540,1.015,0.733,0.345,0.592,0.557,���쐼,4.7,��
2022/07/31,20:00,0.609,0.855,0.541,1.015,0.730,0.343,0.591,0.556,���쐼,4.9,��
2022/07/31,20:10,0.607,0.854,0.541,1.015,0.731,0.343,0.591,0.555,���쐼,5.7,��
2022/07/31,20:20,0.608,0.853,0.542,1.015,0.732,0.345,0.592,0.558,��,4.6,��
2022/07/31,20:30,0.609,0.853,0.542,1.016,0.732,0.344,0.590,0.559,��,4.4,��
2022/07/31,20:40,0.609,0.855,0.540,1.013,0.731,0.343,0.591,0.557,���k��,2.3,��
2022/07/31,20:50,0.610,0.855,0.541,1.014,0.731,0.343,0.592,0.558,��,2.6,��
2022/07/31,21:00,0.609,0.853,0.542,1.013,0.731,0.345,0.593,0.557,��,3.5,��
2022/07/31,21:10,0.608,0.852,0.543,1.015,0.731,0.345,0.591,0.557,��,2.6,��
2022/07/31,21:20,0.610,0.853,0.541,1.014,0.733,0.345,0.592,0.558,��,2.3,��
2022/07/31,21:30,0.608,0.854,0.541,1.012,0.731,0.343,0.591,0.557,��,1.7,��
2022/07/31,21:40,0.607,0.855,0.541,1.014,0.732,0.344,0.592,0.558,��,1.2,��
2022/07/31,21:50,0.609,0.853,0.539,1.014,0.732,0.345,0.591,0.557,���쐼,1.4,��
2022/07/31,22:00,0.609,0.855,0.541,1.014,0.731,0.344,0.592,0.559,��,1.9,��
2022/07/31,22:10,0.608,0.854,0.543,1.012,0.732,0.344,0.592,0.557,���쐼,2.0,��
2022/07/31,22:20,0.607,0.856,0.542,1.015,0.733,0.344,0.591,0.557,���쐼,2.0,��
2022/07/31,22:30,0.608,0.854,0.542,1.014,0.732,0.345,0.592,0.557,���쐼,2.2,��
2022/07/31,22:40,0.608,0.854,0.541,1.016,0.731,0.345,0.593,0.557,���쐼,2.5,��
2022/07/31,22:50,0.609,0.853,0.541,1.017,0.730,0.344,0.593,0.555,���쐼,1.9,��
2022/07/31,23:00,0.610,0.855,0.541,1.015,0.731,0.345,0.591,0.557,���쐼,1.7,��
2022/07/31,23:10,0.608,0.856,0.542,1.015,0.732,0.345,0.591,0.557,�쐼,1.7,��
2022/07/31,23:20,0.608,0.852,0.541,1.016,0.730,0.345,0.592,0.557,���k��,0.8,��
2022/07/31,23:30,0.607,0.854,0.542,1.016,0.734,0.344,0.592,0.556,��쐼,1.1,��
2022/07/31,23:40,0.609,0.855,0.542,1.016,0.729,0.345,0.592,0.557,�쐼,1.7,��
2022/07/31,23:50,0.608,0.856,0.543,1.015,0.731,0.346,0.592,0.557,���쐼,1.2,��
